星链-32141 (STARLINK-32141)

导读 | 豆包AI

STARLINK-32141是美国SpaceX公司星链(Starlink)星座中的一颗低轨通信卫星,于2024年7月28日由猎鹰9号火箭从肯尼迪航天中心发射升空,属于该公司大规模组网的星链卫星之一。 它运行在近地轨道,作为全球卫星互联网星座的组成部分,旨在为地面基础设施难以覆盖的偏远地区、海洋和空中提供高速低延迟互联网接入服务,助力星链实现全球互联的目标,同时星链项目也已拓展应用于军事和应急通信领域。

基本信息
目录编号:
60290
目录名称:
STARLINK-32141
国际标识:
2024-132N
轨道中心:
EARTH
卫星名称:
星链-32141 (STARLINK-32141)
卫星全名:
星链-32141 (STARLINK-32141)
卫星状态:
在轨 (已飞行595 天)
发射日期:
2024-07-28 UTC
国别 :
美国 (US)
星等 :
--
轨道信息
数据来源 国际轨道数据 AOE轨道数据
星历时间 2026-03-15T11:04:33+0800
11小时前
查看轨道信息
2026-03-12T17:00:00+0800
3天前
查看轨道信息
半长轴 6853.408km 6853.388km
偏心率 0.000135 0.0001042
轨道倾角 53.163° 53.165°
近地点辐角 91.873° 90.523°
升交点赤经 27.128° 39.917°
平近点角 268.242° 214.853°
近地点 474.345km 474.536km
远地点 476.197km 475.966km
周期 94.106分钟 94.106分钟
每日圈数 15.301815 15.301881
详细信息
卫星平台:
Starlink v2.0 mini
运营商:
太空探索技术公司
运营商所在国:
美国
制造商(研发单位):
太空探索技术公司
制造商所在国:
美国
使用方式:
暂无
卫星简介
星链(Starlink)计划是由太空探索技术公司(SpaceX)提出的一个巨型低轨卫星互联网星座项目,计划在2019年至2024年间在太空搭建由约1.2万颗卫星组成的“星链”网络,其中1584颗将部署在地球上空550千米处的近地轨道,并从2020年开始工作。该卫星仍在工作。
2D轨道图
3D轨道图
轨道高度分析图
轨道倾角分析图
轨道综合分析图
查看轨道综合分析图